Weather History for Unalakleet, AK

Change the Weather History Date:

Saturday, November 17, 2012

  Actual Average Record
Temperature  
Mean Temperature 4 °F -  
Max Temperature 10 °F 20 °F 40 °F (1964)
Min Temperature -2 °F 7 °F -24 °F (1955)
Degree Days  
Heating Degree Days 61    
Moisture  
Dew Point -17 °F    
Average Humidity 38    
Maximum Humidity 46    
Minimum Humidity 31    
Precipitation  
Precipitation 0.00 in - - ()
Sea Level Pressure  
Sea Level Pressure 29.87 in    
Wind  
Wind Speed 14 mph (NE)    
Max Wind Speed 29 mph    
Max Gust Speed 38 mph    
Visibility 10 miles    
Events      
Averages and records for this station are not official NWS values.
T = Trace of Precipitation, MM = Missing Value Source: NWS Daily Summary

Daily Weather History Graph

Daily Weather History Graph

Search for Another Location

Airport:

Trip Planner

Search our weather history database for the weather conditions in past years. The results will help you decide how hot, cold, wet, or windy it might be!

Date:

Astronomy

Nov. 17, 2012 Rise Set
Actual Time 10:18 AM AKST 4:37 PM AKST
Civil Twilight 9:17 AM AKST 5:38 PM AKST
Nautical Twilight 8:16 AM AKST 6:38 PM AKST
Astronomical Twilight 7:20 AM AKST 7:35 PM AKST
Moon 2:06 PM AKST (11/17) 9:12 PM AKST (11/17)
Length of Visible Light 8h 20m
Length of Day
6h 18m
Waxing Crescent, 21% of the Moon is Illuminated
Nov 17
Waxing Crescent
Nov 20
First Quarter
Nov 28
Full
Dec 6
Last Quarter
Dec 12
New

Hourly Weather History & Observations

Time (AKST) Temp. Windchill Dew Point Humidity Pressure Visibility Wind Dir Wind Speed Gust Speed Precip Events Conditions
12:16 AM 8.6 °F -11.9 °F - N/A% 30.01 in 10.0 mi East 23.0 mph 28.8 mph N/A   Clear
12:36 AM 8.6 °F -11.9 °F - N/A% 30.00 in 10.0 mi ENE 23.0 mph 32.2 mph N/A   Clear
12:56 AM 8.6 °F -12.3 °F -11.2 °F 40% 30.00 in 10.0 mi ENE 24.2 mph 29.9 mph N/A   Clear
1:16 AM 8.6 °F -11.9 °F -11.2 °F 40% 30.00 in 10.0 mi East 23.0 mph 29.9 mph N/A   Clear
1:36 AM 8.6 °F -12.3 °F -14.8 °F 34% 30.00 in 10.0 mi ENE 24.2 mph 28.8 mph N/A   Clear
1:56 AM 8.6 °F -12.7 °F -13.0 °F 37% 29.99 in 10.0 mi ENE 25.3 mph 31.1 mph N/A   Clear
2:16 AM 8.6 °F -13.8 °F -11.2 °F 40% 29.98 in 10.0 mi ENE 28.8 mph 38.0 mph N/A   Clear
2:36 AM 10.4 °F -11.4 °F -13.0 °F 34% 29.97 in 10.0 mi ENE 28.8 mph 38.0 mph N/A   Clear
2:56 AM 8.6 °F -13.4 °F -14.8 °F 34% 29.97 in 10.0 mi ENE 27.6 mph 36.8 mph N/A   Clear
3:16 AM 8.6 °F -11.9 °F -14.8 °F 34% 29.96 in 10.0 mi ENE 23.0 mph 31.1 mph N/A   Clear
3:36 AM 8.6 °F -12.7 °F -14.8 °F 34% 29.97 in 10.0 mi ENE 25.3 mph - N/A   Clear
3:56 AM 8.6 °F -11.4 °F -14.8 °F 34% 29.97 in 10.0 mi East 21.9 mph 27.6 mph N/A   Clear
4:16 AM 8.6 °F -8.3 °F -14.8 °F 34% 29.98 in 10.0 mi ENE 15.0 mph - N/A   Clear
4:36 AM 8.6 °F -10.0 °F -14.8 °F 34% 29.97 in 10.0 mi East 18.4 mph - N/A   Clear
4:56 AM 6.8 °F -12.4 °F -14.8 °F 37% 29.97 in 10.0 mi East 18.4 mph - N/A   Clear
5:16 AM 5.0 °F -9.1 °F -16.6 °F 36% 29.97 in 10.0 mi NE 9.2 mph - N/A   Clear
5:36 AM 5.0 °F -10.8 °F -16.6 °F 36% 29.96 in 10.0 mi East 11.5 mph - N/A   Clear
5:56 AM 3.2 °F -10.3 °F -16.6 °F 39% 29.96 in 10.0 mi East 8.1 mph - N/A   Clear
6:16 AM 1.4 °F -12.5 °F -18.4 °F 39% 29.95 in 10.0 mi ENE 8.1 mph - N/A   Clear
6:36 AM 1.4 °F -13.5 °F -18.4 °F 39% 29.95 in 10.0 mi East 9.2 mph - N/A   Clear
6:56 AM 3.2 °F -6.2 °F -14.8 °F 43% 29.95 in 10.0 mi ESE 4.6 mph - N/A   Clear
7:16 AM -0.4 °F -12.0 °F -20.2 °F 39% 29.95 in 10.0 mi NE 5.8 mph - N/A   Clear
7:36 AM -0.4 °F -14.7 °F -20.2 °F 39% 29.94 in 10.0 mi NE 8.1 mph - N/A   Clear
7:56 AM -2.2 °F -15.6 °F -20.2 °F 42% 29.94 in 10.0 mi NE 6.9 mph - N/A   Clear
8:16 AM -0.4 °F -10.4 °F -18.4 °F 43% 29.93 in 10.0 mi ENE 4.6 mph - N/A   Clear
8:36 AM -2.2 °F -16.8 °F -18.4 °F 46% 29.92 in 10.0 mi NE 8.1 mph - N/A   Clear
8:56 AM -2.2 °F -16.8 °F -20.2 °F 42% 29.92 in 10.0 mi NE 8.1 mph - N/A   Clear
9:16 AM -0.4 °F -13.4 °F -18.4 °F 43% 29.92 in 10.0 mi NE 6.9 mph - N/A   Clear
9:36 AM -0.4 °F -12.0 °F -16.6 °F 46% 29.92 in 10.0 mi NE 5.8 mph - N/A   Clear
9:56 AM -2.2 °F -15.6 °F -20.2 °F 42% 29.92 in 10.0 mi ENE 6.9 mph - N/A   Clear
10:16 AM -2.2 °F -15.6 °F -20.2 °F 42% 29.92 in 10.0 mi NE 6.9 mph - N/A   Clear
10:36 AM -0.4 °F -10.4 °F -16.6 °F 46% 29.91 in 10.0 mi ENE 4.6 mph - N/A   Clear
10:56 AM -2.2 °F -14.2 °F -20.2 °F 42% 29.90 in 10.0 mi ENE 5.8 mph - N/A   Clear
11:16 AM -2.2 °F -12.5 °F -18.4 °F 46% 29.89 in 10.0 mi ESE 4.6 mph - N/A   Clear
11:36 AM -0.4 °F - -16.6 °F 46% 29.89 in 10.0 mi Calm Calm - N/A   Clear
11:56 AM -0.4 °F - -18.4 °F 43% 29.89 in 10.0 mi Calm Calm - N/A   Clear
12:16 PM -0.4 °F - -16.6 °F 46% 29.88 in 10.0 mi Calm Calm - N/A   Clear
12:36 PM -0.4 °F - -16.6 °F 46% 29.87 in 10.0 mi Calm Calm - N/A   Clear
12:56 PM 1.4 °F - -16.6 °F 43% 29.87 in 10.0 mi Calm Calm - N/A   Clear
1:16 PM 1.4 °F - -16.6 °F 43% 29.86 in 10.0 mi Calm Calm - N/A   Clear
1:36 PM 3.2 °F - -16.6 °F 39% 29.85 in 10.0 mi Calm Calm - N/A   Clear
1:56 PM 1.4 °F -6.2 °F -16.6 °F 43% 29.84 in 10.0 mi East 3.5 mph - N/A   Clear
2:16 PM 1.4 °F -9.9 °F -18.4 °F 39% 29.84 in 9.0 mi ESE 5.8 mph - N/A   Clear
2:36 PM 3.2 °F - -14.8 °F 43% 29.83 in 10.0 mi Calm Calm - N/A   Clear
2:56 PM 3.2 °F - -16.6 °F 39% 29.82 in 10.0 mi Calm Calm - N/A   Clear
3:16 PM 3.2 °F - -16.6 °F 39% 29.82 in 10.0 mi Calm Calm - N/A   Clear
3:36 PM 3.2 °F - -16.6 °F 39% 29.81 in 10.0 mi Calm Calm - N/A   Clear
3:56 PM 1.4 °F -6.2 °F -20.2 °F 36% 29.80 in 10.0 mi SE 3.5 mph - N/A   Clear
4:16 PM 1.4 °F -11.3 °F -18.4 °F 39% 29.80 in 10.0 mi SE 6.9 mph - N/A   Clear
4:36 PM -0.4 °F -8.3 °F -18.4 °F 43% 29.80 in 10.0 mi East 3.5 mph - N/A   Clear
4:56 PM 1.4 °F - -18.4 °F 39% 29.80 in 10.0 mi Calm Calm - N/A   Clear
5:16 PM -0.4 °F - -18.4 °F 43% 29.79 in 10.0 mi Calm Calm - N/A   Clear
5:36 PM 1.4 °F - -16.6 °F 43% 29.79 in 10.0 mi Calm Calm - N/A   Clear
5:56 PM -0.4 °F -10.4 °F -20.2 °F 39% 29.79 in 10.0 mi NE 4.6 mph - N/A   Clear
6:16 PM 3.2 °F -13.1 °F -14.8 °F 43% 29.79 in 10.0 mi North 11.5 mph - N/A   Clear
6:36 PM 3.2 °F -6.2 °F -18.4 °F 36% 29.79 in 10.0 mi NNE 4.6 mph - N/A   Clear
6:56 PM 3.2 °F -4.2 °F -16.6 °F 39% 29.79 in 10.0 mi North 3.5 mph - N/A   Clear
7:16 PM 1.4 °F -14.5 °F -20.2 °F 36% 29.78 in 10.0 mi North 10.4 mph - N/A   Clear
7:36 PM 1.4 °F -13.5 °F -18.4 °F 39% 29.78 in 10.0 mi North 9.2 mph - N/A   Clear
7:56 PM 3.2 °F -12.2 °F -18.4 °F 36% 29.78 in 10.0 mi North 10.4 mph - N/A   Clear
8:16 PM 8.6 °F -7.0 °F -13.0 °F 37% 29.77 in 10.0 mi NNE 12.7 mph 17.3 mph N/A   Clear
8:36 PM 10.4 °F -5.4 °F -14.8 °F 31% 29.77 in 10.0 mi NNE 13.8 mph 18.4 mph N/A   Clear
8:56 PM 10.4 °F -5.4 °F -14.8 °F 31% 29.77 in 10.0 mi NNE 13.8 mph - N/A   Clear
9:16 PM 10.4 °F -4.8 °F -14.8 °F 31% 29.77 in 10.0 mi NNE 12.7 mph - N/A   Clear
9:36 PM 10.4 °F -5.4 °F -14.8 °F 31% 29.76 in 10.0 mi NNE 13.8 mph - N/A   Clear
9:56 PM 10.4 °F -5.4 °F -14.8 °F 31% 29.76 in 10.0 mi NNE 13.8 mph 24.2 mph N/A   Clear
10:16 PM 10.4 °F -5.4 °F -14.8 °F 31% 29.76 in 10.0 mi NNE 13.8 mph - N/A   Clear
10:36 PM 10.4 °F -5.4 °F -14.8 °F 31% 29.75 in 10.0 mi NNE 13.8 mph - N/A   Clear
10:56 PM 8.6 °F -4.7 °F -16.6 °F 31% 29.75 in 10.0 mi North 9.2 mph - N/A   Clear
11:16 PM 8.6 °F -4.7 °F -16.6 °F 31% 29.75 in 10.0 mi NNE 9.2 mph - N/A   Clear
11:36 PM 10.4 °F -3.3 °F -14.8 °F 31% 29.75 in 10.0 mi NNE 10.4 mph - N/A   Clear
11:56 PM 8.6 °F -1.3 °F -16.6 °F 31% 29.74 in 10.0 mi North 5.8 mph - N/A   Clear